www.pogodaiklimat.ru
ПОГОДА в Уэстерли
Время
и дата
08:53 03.02
09:53 03.02
10:53 03.02
11:53 03.02
12:53 03.02
13:53 03.02
14:53 03.02
15:53 03.02
16:53 03.02
17:53 03.02
18:53 03.02
19:53 03.02
20:53 03.02
21:53 03.02
22:53 03.02
23:53 03.02
00:53 04.02
01:53 04.02
02:53 04.02
03:53 04.02
04:53 04.02
05:53 04.02
06:53 04.02
07:53 04.02
08:53 04.02
09:53 04.02
10:53 04.02
11:53 04.02
12:53 04.02
13:53 04.02
14:53 04.02
15:53 04.02
16:53 04.02
17:53 04.02
18:53 04.02
19:53 04.02
20:53 04.02
21:53 04.02
22:53 04.02
23:53 04.02
00:53 05.02
01:53 05.02
02:53 05.02
03:53 05.02
04:53 05.02
05:53 05.02
06:53 05.02
07:53 05.02
Ветер
(напр.,м/с)
Видим. Явления Облачность Т
(С)
Тd
(С)
f
(%)
Тe
(С)
Тes
(С)
Комфортность P
(гПа)
Po
(гПа)
Тmin
(С)
Tmax
(С)
R
(мм)
R24
(мм)
S
(см)
СЗ 6
{13}
16 км ясно -5.0 -19.4 31 -12 -11 1011.7 1008.9
СЗ 6
{14}
16 км ясно -6.1 -22.8 25 -13 -12 1012.7 1009.5
СЗ 5
{13}
16 км ясно -6.1 -21.7 28 -13 -10 1012.9 1009.9
СЗ 4
{12}
16 км ясно -6.1 -22.8 25 -12 -8 1013.1 1010.2
СЗ 7
{13}
16 км ясно -6.7 -24.4 23 -15 -13 1012.9 1009.9 -6.7 -1.1
СЗ 7
{15}
16 км ясно -6.7 -23.9 24 -15 -13 1013.2 1010.2
СЗ 6
{10}
16 км ясно -6.7 -23.9 24 -14 -12 1013.7 1010.5
СЗ 5
{11}
16 км ясно -7.2 -23.9 25 -14 -13 1014.8 1011.9
СЗ 4
{10}
16 км ясно -9.4 -24.4 28 -16 -16 1016.5 1013.6
СЗ 5
{11}
16 км 5/5 1650 м -11.7 -25.0 32 -20 -20 1018.8 1015.6
СЗ 5
{10}
16 км 2/2 1650 м -12.8 -26.1 32 -21 -21 1020.4 1017.3 -12.8 -6.1
СЗ 5
{11}
16 км ясно -13.9 -26.1 35 -22 -22 1021.8 1018.7
СЗ 5
{10}
16 км ясно -15.0 -26.1 38 -24 -24 1023.0 1020.0
нст 3
{10}
16 км 5/5 1470 м -15.6 -25.6 42 -22 -22 1024.0 1021.0
СЗ 5
{11}
16 км ясно -16.7 -27.8 38 -26 -26 1025.2 1022.0
СЗ 6
{17}
16 км ясно -17.2 -30.6 30 -27 -27 1026.4 1023.4
С 8
{12}
16 км ясно -18.9 -31.1 33 -31 -31 опасность
обморожения
1028.3 1025.1 -18.9 -12.8
СЗ 5
{9}
16 км ясно -20.0 -32.2 33 -30 -30 1030.1 1027.1
СЗ 4
{11}
16 км ясно -20.0 -32.8 31 -29 -29 1031.0 1027.8
СЗ 5
{11}
16 км ясно -20.6 -33.9 29 -31 -31 опасность
обморожения
1031.5 1028.4
СЗ 4 16 км ясно -21.1 -33.9 31 -30 -30 1032.0 1028.8
СЗ 5
{11}
16 км ясно -21.1 -34.4 29 -31 -31 опасность
обморожения
1033.1 1029.8
нст 3 16 км ясно -21.1 -33.9 31 -29 -29 1034.2 1031.1 -21.1 -18.9
СЗ 4
{7}
16 км ясно -20.0 -33.9 28 -29 -29 1035.1 1031.8
З 5
{9}
16 км ясно -18.9 -32.2 30 -29 -28 1036.1 1032.8
З 4 16 км ясно -17.2 -30.0 32 -25 -24 1036.6 1033.5
З 5
{9}
16 км ясно -15.0 -30.0 27 -24 -21 1035.9 1032.8
СЗ 4 16 км ясно -13.3 -30.6 22 -21 -17 1035.1 1031.8
нст 2 16 км ясно -11.1 -28.9 21 -15 -9 1034.2 1031.1 -21.1 -11.1
нст 3 16 км ясно -10.0 -28.3 21 -16 -11 1033.5 1030.5
нст 3 16 км ясно -8.9 -27.8 20 -14 -11 1033.3 1030.1
нст 2 16 км ясно -9.4 -27.8 21 -13 -12 1033.5 1030.5
СЗ 2 16 км 2/0 3300 m
[Ac]
-9.4 -27.2 22 -13 -13 1033.9 1030.8
штиль 0 16 км 5/0 2550 m
[Ac]
-8.9 -25.6 24 -9 -9 1034.1 1030.8
штиль 0 16 км 10/0 2400 m
[Ac]
-8.9 -23.9 29 -9 -9 1033.8 1030.8 -11.7 -8.9
ЮЗ 3 16 км 8/0 2400 m
[Ac]
-7.8 -15.0 56 -13 -13 1033.3 1030.1
ЮЗ 2 16 км ясно -7.2 -15.6 51 -11 -11 1033.2 1030.1
ЮЗ 3 16 км 8/8 960 м -6.7 -12.8 62 -12 -12 1032.5 1029.5
штиль 0 16 км 10/10 1110 м -8.9 -15.0 61 -9 -9 1031.7 1028.4
ЮЗ 4 16 км 5/5 1110 м -3.3 -8.9 65 -9 -9 1030.6 1027.4
ЮЗ 6
{9}
16 км 10/10 1950 м -1.7 -9.4 56 -8 -8 1029.8 1026.8 -9.4 -1.7
ЮЗ 5 16 км 8/0 2100 m
[Ac]
-1.1 -7.2 63 -7 -7 1028.9 1025.7
ЮЗ 5
{8}
16 км 8/0 2100 m
[Ac]
0.0 -6.7 61 -6 -6 1027.8 1024.7
ЮЗ 6
{9}
16 км 5/5 1950 м +0.6 -7.2 56 -5 -5 1027.0 1024.1
ЮЗ 6 16 км ясно +1.1 -7.2 54 -5 -5 1026.3 1023.4
ЮЗ 5
{9}
16 км ясно +2.2 -5.6 56 -3 -3 1025.6 1022.7
ЮЗ 5 16 км ясно +2.2 -4.4 62 -3 -3 1025.1 1022.0 -1.7 +2.2
ЮЗ 4
{9}
16 км ясно +2.8 -3.3 64 -2 -2 1024.8 1021.7
Местоположение метеостанции Westerly State Airport: широта 41.3497 долгота -71.7989 высота над уровнем моря 24 м.
В архиве по умолчанию представлена погода в Уэстерли за последние 1-2 суток. Обновление информации о фактической погоде в базе происходит ежечасно! Архивные данные за месяц целиком и за предыдущие месяцы Вы можете получить, выбрав интересующий диапазон дат из раскрывающегося списка и нажав кнопку "Ввод!".
Внимание! Архив погоды МЕТАР в базе сайта по станциям, не включенным в климатический монитор, хранится не более 60 дней. Нет смысла пытаться выбрать более раннюю дату.
*Определитесь, кто Вы:
Внимание! Время в таблицах - местное (без учета летнего времени). Для получения всемирного времени необходимо вычесть поправку, которая равна -5 ч.
Смотрите также архив погоды в соседних городах и на ближайших метеорологических станциях:
Партнеры нашего сайта:      
Пояснения к столбцам:
  • Ветер - указаны скорость ветра в м/с - средняя за 10 мин, порывы в срок и между сроками (в фигурных скобках) и направление, откуда дует ветер: С - северный,
  • СВ - северо-восточный, В - восточный, ЮВ - юго-восточный, Ю - южный, ЮЗ - юго-западный, З - западный, СЗ - северо-западный.
  • Видимость - горизонтальная дальность видимости в метрах или километрах. При видимости от 1 до 10 км при отсутствии осадков обычно наблюдается дымка, при ухудшении видимости до 1 км и менее - туман. В сухую погоду видимость может ухудшаться дымом, пылью или мглою.
  • Явления - указаны атмосферные явления, наблюдавшиеся в срок или в последний час перед сроком; фигурными скобками обозначены явления, наблюдавшиеся между сроками (за 1-3 часа до срока); квадратными скобками обозначены град или гололедные отложения с указанием их диаметра в мм.
  • Облачность - указаны через наклонную черту общая и нижняя облачность в баллах и высота нижней границы облаков в метрах; квадратными скобками обозначены формы облаков: Ci - перистые, Cs - перисто-слоистые, Cc - перисто-кучевые, Ac - высококучевые, As - высокослоистые, Sc - слоисто-кучевые, Ns - слоисто-дождевые, Cu - кучевые, Cb - кучево-дождевые. Подробнее классификацию облаков см. в Атласе облаков (PDF).
  • T - Температура воздуха - температура, измеренная на высоте 2 м над землей.
  • Td - Температура точки росы - температура, при понижении до которой содержащийся в воздухе водяной пар достигнет насыщения.
  • f - Относительная влажность воздуха - влажноcть воздуха, измеренная на высоте 2 м над землей.
  • Te - Эффективная температура - температура, которую ощущает одетый по сезону человек в тени. Характеристика душности погоды. При расчете учитывается влияние влажности воздуха и скорости ветра на теплоощущения человека.
  • Tes - Эффективная температура на солнце - температура, которую ощущает человек, с поправкой на солнечный нагрев. Характеристика знойности погоды. Зависит от высоты солнца над горизонтом, облачности и скорости ветра. Ночью, в пасмурную погоду, а также при ветре 12 м/с и более поправка равна нулю.
  • P - Атмосферное давление - приведенное к уровню моря атмосферное давление.
  • Po - Атмосферное давление - измеренное на уровне метеостанции атмосферное давление.
  • Tmin - Минимальная температура - минимум температуры воздуха на высоте 2 м над землей.
  • Tmax - Максимальная температура - максимум температуры воздуха на высоте 2 м над землей.
  • R - Количество осадков - Количество выпавших осадков за период времени, мм. При наведении курсора мыши на число - период времени, за который выпало указанное количество осадков.
  • R24 - Количество осадков - Количество выпавших осадков за 24 часа, мм.
  • S - Снежный покров - Высота снежного покрова, см. При наведении курсора мыши на число - состояние снежного покрова и степень покрытия местности в баллах.